Location: Poughquag
(41.6090°N, 73.6820°W)
Time: 10:27:48
(UTC-05:00)

Vanguard 1 - Pass Details

Date: 03 December 2023
Orbit: 653 x 3826 km, 34.3° (Epoch: 25 February)

Event Time Altitude Azimuth Distance (km) Brightness Sun altitude
Rises 17:49:48 0° 233° (SW) 5,612 15.3 -15.4°
Reaches altitude 10° 17:52:58 10° 228° (SW) 4,956 14.7 -16.0°
Maximum altitude 18:08:16 57° 155° (SSE) 3,705 12.8 -18.8°
Enters shadow 18:23:34 25° 91° (E) 5,703 13.3 -21.6°
Drops below altitude 10° 18:30:35 10° 85° (E) 6,927 - -22.9°
Sets 18:36:01 0° 82° (E) 7,878 - -23.9°
